Penticton, British Columbia

2:02 PM PDT on October 18, 2017 (GMT -0700)
Penticton

Weather History for CYYF - October, 2011

Change the Weather History Date:

Saturday, October 22, 2011

  Actual Average Record
Temperature  
Mean Temperature 53 °F -  
Max Temperature 59 °F 48 °F 69 °F (2003)
Min Temperature 47 °F 33 °F 28 °F (2006)
Degree Days  
Heating Degree Days 12    
Growing Degree Days 3 (Base 50)    
Moisture  
Dew Point 44 °F    
Average Humidity 73    
Maximum Humidity 87    
Minimum Humidity 58    
Precipitation  
Precipitation 0.03 in 0.03 in - ()
Sea Level Pressure  
Sea Level Pressure 30.07 in    
Wind  
Wind Speed 5 mph ()    
Max Wind Speed 16 mph    
Max Gust Speed -    
Visibility 15.0 miles    
Events Rain    
Averages and records for this station are not official NWS values.
T = Trace of Precipitation, MM = Missing Value Source: Averaged Metar Reports

Daily Weather History Graph

Daily Weather History Graph

Search for Another Location

Airport or City:

Trip Planner

Search our weather history database for the weather conditions in past years. The results will help you decide how hot, cold, wet, or windy it might be!

Date:

Astronomy

Oct. 22, 2011 Rise Set
Actual Time 7:30 AM PDT 5:54 PM PDT
Civil Twilight 6:57 AM PDT 6:27 PM PDT
Nautical Twilight 6:20 AM PDT 7:04 PM PDT
Astronomical Twilight 5:43 AM PDT 7:41 PM PDT
Moon 2:08 AM PDT (10/22) 3:36 PM PDT (10/22)
Length of Visible Light 11h 29m
Length of Day
10h 24m
Waning Crescent, 22% of the Moon is Illuminated
Oct 22
Waning Crescent
Oct 26
New
Nov 2
First Quarter
Nov 10
Full
Nov 18
Last Quarter

Hourly Weather History & Observations

Time (PDT) Temp. Dew Point Humidity Pressure Visibility Wind Dir Wind Speed Gust Speed Precip Events Conditions
12:00 AM 50.0 °F 41.0 °F 71% 30.11 in 15.0 mi South 4.6 mph - N/A   Mostly Cloudy
1:00 AM 48.2 °F 41.0 °F 76% 30.12 in 15.0 mi Calm Calm - N/A   Scattered Clouds
2:00 AM 51.8 °F 42.8 °F 71% 30.12 in 15.0 mi East 5.8 mph - N/A   Scattered Clouds
3:00 AM 51.8 °F 42.8 °F 71% 30.12 in 15.0 mi South 4.6 mph - N/A   Scattered Clouds
4:00 AM 51.8 °F 42.8 °F 71% 30.11 in 15.0 mi SSE 8.1 mph - N/A   Scattered Clouds
5:00 AM 53 °F 43 °F 58% 30.09 in 15 mi SSE 5.8 mph - -   Scattered Clouds
6:00 AM 51.8 °F 42.8 °F 71% 30.09 in 15.0 mi North 2.3 mph - N/A   Mostly Cloudy
7:00 AM 48.2 °F 42.8 °F 82% 30.08 in 15.0 mi Calm Calm - N/A   Mostly Cloudy
8:00 AM 48.2 °F 42.8 °F 82% 30.08 in 15.0 mi Calm Calm - N/A   Overcast
9:00 AM 50.0 °F 42.8 °F 76% 30.08 in 15.0 mi SSE 4.6 mph - N/A Rain Light Rain Showers
10:00 AM 50.0 °F 44.6 °F 82% 30.11 in 15.0 mi SE 4.6 mph - N/A Rain Light Rain
11:00 AM 51 °F 46 °F 76% 30.13 in 15 mi SSE 6.9 mph - - Rain Light Rain Showers
11:00 AM 50.0 °F 46.4 °F 87% 30.13 in 15.0 mi SSE 5.8 mph - N/A   Overcast
12:00 PM 53.6 °F 44.6 °F 72% 30.12 in 15.0 mi South 16.1 mph - N/A   Mostly Cloudy
1:00 PM 57.2 °F 46.4 °F 67% 30.09 in 15.0 mi South 8.1 mph - N/A   Mostly Cloudy
2:00 PM 59.0 °F 46.4 °F 63% 30.05 in 15.0 mi SSE 12.7 mph - N/A   Mostly Cloudy
3:00 PM 57.2 °F 46.4 °F 67% 30.03 in 15.0 mi SSE 10.4 mph - N/A   Mostly Cloudy
3:11 PM - - N/A% - 15.0 mi SSE 8.1 mph - N/A Rain Light Rain Showers
4:00 PM 57.2 °F 44.6 °F 63% 30.02 in 15.0 mi South 11.5 mph - N/A   Mostly Cloudy
4:17 PM - - N/A% - 15.0 mi South 11.5 mph - N/A Rain Light Rain Showers
4:52 PM - - N/A% - 15.0 mi South 6.9 mph - N/A   Mostly Cloudy
5:00 PM 56 °F 46 °F 61% 30.02 in 15 mi South 6.9 mph - -   Scattered Clouds
5:00 PM 55.4 °F 46.4 °F 72% 30.02 in 15.0 mi South 6.9 mph - N/A   Mostly Cloudy
6:00 PM 55.4 °F 48.2 °F 77% 30.02 in 15.0 mi SSE 5.8 mph - N/A   Mostly Cloudy
8:00 PM 55.4 °F 46.4 °F 72% 30.01 in 15.0 mi SSW 4.6 mph - N/A   Mostly Cloudy
9:00 PM 53.6 °F 46.4 °F 77% 30.02 in 15.0 mi SSW 5.8 mph - N/A   Mostly Cloudy
10:00 PM 51.8 °F 44.6 °F 76% 30.03 in 15.0 mi SSE 9.2 mph - N/A   Partly Cloudy
11:00 PM 50 °F 44 °F 74% 30.03 in 15 mi South 8.1 mph - -   Scattered Clouds
11:00 PM 50.0 °F 44.6 °F 82% 30.03 in 15.0 mi South 8.1 mph - N/A   Partly Cloudy